Tracking 25710 objects as of 5-Jul-2022
HD Live streaming from Space Station
objects crossing your sky now

FENGYUN 1C DEB

Track FENGYUN 1C DEB now!
10-day predictions


NORAD ID: 32418
Int'l Code: 1999-025DAE
Perigee: 765.1 km
Apogee: 1,166.6 km
Inclination: 98.2 °
Period: 104.2 minutes
Semi major axis: 7336 km
RCS: 0.0154 m2 (small)
Launch date: May 10, 1999
Source: People's Republic of China (PRC)
Launch site: Taiyaun Space Center, China (TSC)

Note: This is SATELLITE DEBRIS
aabbcc
Your satellite tracking list
Your tracking list is empty




NASA's NSSDC Master Catalog

Two Line Element Set (TLE):
1 32418U 99025DAE 22185.77810555  .00001175  00000-0  85792-3 0  9997
2 32418  98.2020 184.2013 0273602 301.9670  55.5154 13.81453607455205
Source of the keplerian elements: AFSPC